Regional Weather Roundup
Issued by NWS

Home | Current Version | Previous Version | Graphics & Text | Print | Product List | Glossary On
Versions: 1 2 3 4 5 6 7 8 9 10 11 12 13 14 15 16 17 18 19 20 21 22 23 24 25 26 27 28 29 30 31 32 33 34 35 36 37 38 39 40 41 42 43 44 45 46 47 48 49 50
000
ASUS43 KLOT 020502
RWRIL

ILLINOIS REGIONAL WEATHER ROUNDUP
NATIONAL WEATHER SERVICE CHICAGO/ROMEOVILLE IL
1200 AM CDT THU APR 02 2015

NOTE: "FAIR" INDICATES FEW OR NO CLOUDS BELOW 12,000 FEET WITH NO
SIGNIFICANT WEATHER AND/OR OBSTRUCTIONS TO VISIBILITY.

* THESE STATIONS ARE NOT UNDER NWS QUALITY CONTROL. THEY ALSO MAY NOT
  REPORT WEATHER SUCH AS PRECIPITATION OR FOG.

ILZ001-002-007-009-015-016-024-020600-
NORTHWEST ILLINOIS

CITY           SKY/WX    TMP DP  RH WIND       PRES   REMARKS
MOLINE         PTCLDY    63  38  39 S16G23    29.72F
STERLING*      PTCLDY    61  39  44 S10G16    29.75S
$$

ILZ003-004-008-010-011-017-018-020600-
NORTH CENTRAL ILLINOIS

CITY           SKY/WX    TMP DP  RH WIND       PRES   REMARKS
ROCKFORD       MOCLDY    57  39  51 S15       29.78S
FREEPORT*      CLEAR     53  41  62 S14       29.76F
$$

ILZ005-006-012>014-019>023-020600-
NORTHEAST ILLINOIS

CITY           SKY/WX    TMP DP  RH WIND       PRES   REMARKS
CHICAGO-OHARE  PTCLDY    60  36  40 S18       29.80F
CHICAGO-MIDWAY MOCLDY    63  35  35 S17G29    29.82F
AURORA         PTCLDY    57  39  51 S17G24    29.80F
LANSING*       PTCLDY    55  35  45 S17       29.84F
WAUKEGAN       PTCLDY    60  37  42 S17G25    29.79F
DUPAGE AIRPORT PTCLDY    58  38  47 S13       29.79F
WHEELING       PTCLDY    61  35  37 S16       29.81F
NORTHERLY ISL    N/A     62  33  33 S16         N/A
$$

LMZ740>746-020600-
SOUTHERN LAKE MICHIGAN

STATION/POSITION SKY/WX   TEMP    WIND        PRES    VSBY  WAVE
                          AIR SEA DIR/SP/G                  HT/PER
                          (F)     (DEG/KT/KT) (MB)    (MI)  (FT/S)
HARRISON CRIB              57     170/ 23/ 25   N/A
BURNHAM HARBOR             62     180/ 10/ 16   N/A
CALUMET HARBOR             61     160/ 12/ 18 1009.5F
BURNS HARBOR               59     170/ 14/ 22 1011.9F
MICHIGAN CITY              59     150/ 13/ 18   N/A
$$

ILZ025>027-034>036-040-047-049-050-058-095>099-020600-
WEST-CENTRAL ILLINOIS

CITY           SKY/WX    TMP DP  RH WIND       PRES   REMARKS
QUINCY         LGT RAIN  58  54  86 S14G21    29.77F
$$

ILZ028>032-037-038-041>044-048-051>054-059>061-020600-
CENTRAL ILLINOIS

CITY           SKY/WX    TMP DP  RH WIND       PRES   REMARKS
BLOOMINGTON    PTCLDY    58  40  51 S22G30    29.84F
DECATUR        MOCLDY    61  38  42 S16       29.85F
PEORIA         PTCLDY    62  40  44 S23G30    29.79F
LINCOLN*       MOCLDY    59  42  52 S13G18    29.82F
SPRINGFIELD    CLOUDY    64  40  41 S17       29.82F
TAYLORVILLE    NOT AVBL
$$

ILZ033-039-045-046-055>057-062-063-020600-
EAST-CENTRAL ILLINOIS

CITY           SKY/WX    TMP DP  RH WIND       PRES   REMARKS
CHAMPAIGN      PTCLDY    55  38  52 SE15      29.87F
DANVILLE*      FAIR      54  37  52 SE10      29.87F
MATTOON        MOCLDY    60  35  39 S13       29.88F
$$

ILZ079-100>102-020600-
SOUTHWEST ILLINOIS

CITY           SKY/WX    TMP DP  RH WIND       PRES   REMARKS
BELLEVILLE     PTCLDY    63  42  47 SE9       29.83F
CAHOKIA*       PTCLDY    64  45  49 S10       29.82F
SPARTA*        PTCLDY    65  49  55 S14       29.87F
$$

ILZ064>066-069>071-074>076-080>082-084>086-088>090-092>094-020600-
SOUTH-CENTRAL ILLINOIS

CITY           SKY/WX    TMP DP  RH WIND       PRES   REMARKS
CARBONDALE     MOCLDY    65  52  62 S15       29.88F
MT. VERNON     PTCLDY    61  37  41 SE5       29.90F
SALEM*         MOCLDY    65  37  36 SE9       29.88F
METROPOLIS*    CLOUDY    64  53  65 S7G16     29.92F
$$

ILZ067-068-072-073-078-083-087-091-020600-
SOUTHEAST ILLINOIS

CITY           SKY/WX    TMP DP  RH WIND       PRES   REMARKS
LAWRENCEVILLE  PTCLDY    57  34  41 SE13      29.93F
HARRISBURG*    PTCLDY    61  44  53 S6        29.92S
ROBINSON*      PTCLDY    58  33  39 SE10      29.94F
$$

ABBREVIATIONS USED IN REMARKS
   TC - TEMPERATURE IN CELSIUS
  WCI - WIND CHILL INDEX
   HX - HEAT INDEX
  VSB - VISIBILITY
$$




USA.gov is the U.S. government's official web portal to all federal, state and local government web resources and services.